Regional Weather Roundup
Issued by NWS

Home | Current Version | Previous Version | Graphics & Text | Print | Product List | Glossary On
Versions: 1 2 3 4 5 6 7 8 9 10 11 12 13 14 15 16 17 18 19 20 21 22 23 24 25 26 27 28 29 30 31 32 33 34 35 36 37 38 39 40 41 42 43 44 45 46 47 48 49 50
585
ASUS43 KOAX 170502
RWRNE

WEATHER ROUNDUP FOR NEBRASKA
NATIONAL WEATHER SERVICE OMAHA NE
1100 PM CST MON JAN 16 2017

NOTES: SATELLITE DATA IS BEING USED TO AUGMENT CLOUD COVER ABOVE
       12000 FEET.
       "FAIR" INDICATES FEW OR NO CLOUDS BELOW 12,000 FEET WITH NO
       SIGNIFICANT WEATHER AND/OR OBSTRUCTIONS TO VISIBILITY.

  * THESE STATIONS DO NOT REPORT WEATHER SUCH AS RAIN...SNOW OR FOG.

NEZ001>004-019>022-054>056-170600-
NEBRASKA PANHANDLE

CITY           SKY/WX    TMP DP  RH WIND       PRES   REMARKS
SCOTTSBLUFF    CLOUDY    23  16  74 NW7       30.10S WCI  15
ALLIANCE       CLEAR     14  11  87 W7        30.06F WCI   4
CHADRON        CLOUDY    14  10  84 W3        30.09F
KIMBALL        CLOUDY    22  17  78 NW9       30.08F WCI  12
SIDNEY         CLOUDY    23  16  74 NW9       30.08F WCI  13
$$

NEZ057>060-069>072-079>082-170600-
SOUTHWEST NEBRASKA

CITY           SKY/WX    TMP DP  RH WIND       PRES   REMARKS
NORTH PLATTE   CLEAR     25  19  78 W8        30.06S WCI  16
IMPERIAL       CLEAR     31  23  72 NW10      30.08S WCI  22
LEXINGTON      CLOUDY    31  24  75 NW10      30.04S WCI  22
MCCOOK         CLEAR     31  26  82 NW8       30.07R WCI  23
OGALLALA       CLEAR     29  22  75 W8        30.07S WCI  22
$$

NEZ005>010-023>029-035>040-094-170600-
NORTH CENTRAL NEBRASKA

CITY           SKY/WX    TMP DP  RH WIND       PRES   REMARKS
VALENTINE      CLOUDY    20  14  77 NW13      30.05S WCI   7
AINSWORTH      CLOUDY    20  17  86 NW8       30.04S WCI  11
BROKEN BOW     CLOUDY    27  20  75 NW14      30.02F WCI  16
O`NEILL        CLOUDY    22  17  82 NW14G20   30.04R WCI   9
ORD            CLOUDY    26  19  74 NW15      30.02F WCI  14
THEDFORD       CLEAR     26  19  75 NW9       30.04F WCI  17
$$

NEZ041-046>049-061>064-073>077-083>087-170600-
SOUTH CENTRAL NEBRASKA

CITY           SKY/WX    TMP DP  RH WIND       PRES   REMARKS
GRAND ISLAND     N/A    N/A N/A N/A MISG        N/A
AURORA         CLOUDY    31  29  89 N3        30.00S
HASTINGS       CLOUDY    32  27  81 N15       30.01S WCI  22
HEBRON         CLOUDY    33  32  98 N7        30.00S WCI  26
HOLDREGE       CLOUDY    31  27  84 N3        30.02S
KEARNEY *      CLOUDY    30  25  80 CALM      30.02S
YORK           CLOUDY    32  30  93 CALM      30.00S
$$

NEZ011>018-030>034-042>045-170600-
NORTHEAST NEBRASKA

CITY           SKY/WX    TMP DP  RH WIND       PRES   REMARKS
NORFOLK        CLOUDY    26  20  77 NW15G25   29.99S WCI  14
ALBION         CLOUDY    27  22  80 NW7       30.01S HAZE    WCI  19
BLAIR          CLOUDY    33  32  96 NW7       29.94F FOG     WCI  27
FREMONT        CLOUDY    32  32 100 NW9       29.99R WCI  24
TEKAMAH        CLOUDY    33  31  92 NW12      29.98R WCI  24
WAYNE          CLOUDY    27  24  88 NW6       30.00R WCI  21
$$

NEZ050>053-065>068-078-088>093-170600-
SOUTHEAST NEBRASKA

CITY           SKY/WX    TMP DP  RH WIND       PRES   REMARKS
LINCOLN        LGT RAIN  33  32  96 N10       29.99F FOG     WCI  25
OMAHA EPPLEY   CLOUDY    33  29  85 NW14      29.96F WCI  23
BEATRICE       CLOUDY    33  32  97 NW6       29.98R WCI  28
FALLS CITY     CLOUDY    34  33  96 NW12      29.95S WCI  25
NEBRASKA CITY  CLOUDY    32  32 100 N12       29.95R WCI  23
PLATTSMOUTH    CLOUDY    33  31  93 NW13      29.95R WCI  24
$$

NEZ044-045-051>053-067-170600-
OMAHA AREA

CITY           SKY/WX    TMP DP  RH WIND       PRES   REMARKS
OMAHA EPPLEY   CLOUDY    33  29  85 NW14      29.96F WCI  23
BLAIR          CLOUDY    33  32  96 NW7       29.94F FOG     WCI  27
FREMONT        CLOUDY    32  32 100 NW9       29.99R WCI  24
MILLARD        CLOUDY    35  33  93 NW7G17    29.96S FOG     WCI  29
OFFUTT AFB     CLOUDY    33  33 100 NW9       29.95S WCI  26
PLATTSMOUTH    CLOUDY    33  31  93 NW13      29.95R WCI  24
WAHOO          CLOUDY    32  31  96 NW12      29.98S WCI  23
$$




USA.gov is the U.S. government's official web portal to all federal, state and local government web resources and services.